TimeCDT,TemperatureF,Dew PointF,Humidity,Sea Level PressureIn,VisibilityMPH,Wind Direction,Wind SpeedMPH,Gust SpeedMPH,PrecipitationIn,Events,Conditions,WindDirDegrees,DateUTC
12:15 AM,55.4,53.6,94,29.99,10.0,Calm,Calm,-,N/A,,Clear,0,2012-10-01 05:15:00
12:35 AM,55.4,53.6,94,29.99,10.0,WNW,3.5,-,N/A,,Clear,290,2012-10-01 05:35:00
12:55 AM,55.4,53.6,94,29.99,10.0,WNW,3.5,-,N/A,,Clear,300,2012-10-01 05:55:00
1:15 AM,55.4,53.6,94,29.98,10.0,Calm,Calm,-,N/A,,Clear,0,2012-10-01 06:15:00
1:35 AM,55.4,53.6,94,29.98,10.0,Calm,Calm,-,N/A,,Clear,0,2012-10-01 06:35:00
1:55 AM,55.4,53.6,94,29.98,10.0,Calm,Calm,-,N/A,,Clear,0,2012-10-01 06:55:00
2:15 AM,53.6,53.6,100,29.98,10.0,NW,4.6,-,N/A,,Clear,310,2012-10-01 07:15:00
2:35 AM,53.6,51.8,94,30.00,10.0,NW,6.9,-,N/A,,Scattered Clouds,310,2012-10-01 07:35:00
2:55 AM,53.6,53.6,100,30.00,10.0,NW,6.9,-,N/A,,Scattered Clouds,320,2012-10-01 07:55:00
3:15 AM,55.4,53.6,94,30.00,10.0,NW,6.9,-,N/A,,Scattered Clouds,310,2012-10-01 08:15:00
3:35 AM,55.4,53.6,94,30.00,10.0,NW,9.2,-,N/A,,Clear,320,2012-10-01 08:35:00
3:55 AM,55.4,53.6,94,30.00,10.0,NNW,10.4,-,N/A,,Scattered Clouds,340,2012-10-01 08:55:00
4:15 AM,55.4,53.6,94,29.98,10.0,NW,6.9,-,N/A,,Scattered Clouds,320,2012-10-01 09:15:00
4:35 AM,55.4,53.6,94,29.98,10.0,NW,6.9,-,N/A,,Clear,310,2012-10-01 09:35:00
4:55 AM,53.6,51.8,94,29.97,10.0,WNW,8.1,-,N/A,,Clear,290,2012-10-01 09:55:00
5:15 AM,53.6,51.8,94,29.97,10.0,West,9.2,-,N/A,,Clear,280,2012-10-01 10:15:00
5:35 AM,53.6,51.8,94,29.98,7.0,West,9.2,-,N/A,,Clear,280,2012-10-01 10:35:00
5:55 AM,53.6,51.8,94,29.98,7.0,WNW,6.9,-,N/A,,Clear,300,2012-10-01 10:55:00
6:15 AM,53.6,51.8,94,29.99,7.0,NW,6.9,-,N/A,,Clear,310,2012-10-01 11:15:00
6:35 AM,53.6,51.8,94,30.00,7.0,NW,5.8,-,N/A,,Clear,320,2012-10-01 11:35:00
6:55 AM,53.6,51.8,94,30.02,7.0,NW,6.9,-,N/A,,Clear,320,2012-10-01 11:55:00
7:15 AM,53.6,51.8,94,30.02,7.0,NW,5.8,-,N/A,,Clear,320,2012-10-01 12:15:00
7:35 AM,53.6,51.8,94,30.03,7.0,NW,6.9,-,N/A,,Clear,320,2012-10-01 12:35:00
7:55 AM,53.6,51.8,94,30.04,7.0,NW,11.5,-,N/A,,Clear,310,2012-10-01 12:55:00
8:15 AM,53.6,51.8,94,30.04,7.0,NW,10.4,-,N/A,,Clear,320,2012-10-01 13:15:00
8:35 AM,55.4,51.8,88,30.05,10.0,NNW,9.2,-,N/A,,Clear,340,2012-10-01 13:35:00
8:55 AM,55.4,53.6,94,30.05,10.0,NNW,10.4,-,N/A,,Scattered Clouds,330,2012-10-01 13:55:00
9:15 AM,59.0,53.6,82,30.05,10.0,NNW,9.2,-,N/A,,Mostly Cloudy,330,2012-10-01 14:15:00
9:35 AM,59.0,53.6,82,30.05,10.0,NW,10.4,-,N/A,,Scattered Clouds,320,2012-10-01 14:35:00
9:55 AM,59.0,53.6,82,30.06,10.0,NNW,12.7,-,N/A,,Scattered Clouds,330,2012-10-01 14:55:00
10:15 AM,60.8,53.6,77,30.08,10.0,North,18.4,25.3,N/A,,Mostly Cloudy,350,2012-10-01 15:15:00
10:35 AM,60.8,53.6,77,30.09,10.0,North,19.6,25.3,N/A,,Scattered Clouds,350,2012-10-01 15:35:00
10:55 AM,64.4,53.6,68,30.10,10.0,North,24.2,35.7,N/A,,Mostly Cloudy,360,2012-10-01 15:55:00
11:15 AM,64.4,53.6,68,30.10,10.0,North,25.3,36.8,N/A,,Scattered Clouds,10,2012-10-01 16:15:00
11:35 AM,64.4,51.8,64,30.11,10.0,North,23.0,33.4,N/A,,Mostly Cloudy,10,2012-10-01 16:35:00
11:55 AM,64.4,51.8,64,30.11,10.0,North,25.3,31.1,N/A,,Mostly Cloudy,360,2012-10-01 16:55:00
12:15 PM,64.4,51.8,64,30.10,10.0,North,18.4,29.9,N/A,,Scattered Clouds,10,2012-10-01 17:15:00
12:35 PM,64.4,51.8,64,30.11,10.0,North,20.7,27.6,N/A,,Mostly Cloudy,360,2012-10-01 17:35:00
12:55 PM,66.2,51.8,60,30.11,10.0,North,18.4,29.9,N/A,,Scattered Clouds,360,2012-10-01 17:55:00
1:15 PM,68.0,51.8,56,30.10,10.0,North,24.2,28.8,N/A,,Scattered Clouds,350,2012-10-01 18:15:00
1:35 PM,68.0,53.6,60,30.10,10.0,North,24.2,31.1,N/A,,Scattered Clouds,350,2012-10-01 18:35:00
1:55 PM,69.8,51.8,53,30.10,10.0,North,23.0,29.9,N/A,,Clear,360,2012-10-01 18:55:00
2:15 PM,69.8,51.8,53,30.09,10.0,North,23.0,33.4,N/A,,Clear,360,2012-10-01 19:15:00
2:55 PM,71.6,50.0,46,30.08,10.0,NNE,19.6,28.8,N/A,,Scattered Clouds,20,2012-10-01 19:55:00
3:15 PM,71.6,48.2,43,30.08,10.0,North,20.7,29.9,N/A,,Scattered Clouds,10,2012-10-01 20:15:00
3:35 PM,71.6,48.2,43,30.07,10.0,North,18.4,26.5,N/A,,Scattered Clouds,360,2012-10-01 20:35:00
3:55 PM,73.4,46.4,38,30.07,10.0,North,24.2,32.2,N/A,,Scattered Clouds,350,2012-10-01 20:55:00
4:15 PM,71.6,46.4,41,30.07,10.0,North,21.9,29.9,N/A,,Scattered Clouds,360,2012-10-01 21:15:00
4:35 PM,71.6,46.4,41,30.07,10.0,North,16.1,-,N/A,,Scattered Clouds,10,2012-10-01 21:35:00
5:15 PM,71.6,44.6,38,30.07,10.0,North,21.9,31.1,N/A,,Mostly Cloudy,360,2012-10-01 22:15:00
5:35 PM,71.6,44.6,38,30.06,10.0,North,19.6,29.9,N/A,,Mostly Cloudy,10,2012-10-01 22:35:00
5:55 PM,69.8,44.6,40,30.07,10.0,North,20.7,29.9,N/A,,Scattered Clouds,360,2012-10-01 22:55:00
6:15 PM,69.8,44.6,40,30.06,10.0,North,19.6,26.5,N/A,,Clear,10,2012-10-01 23:15:00
6:35 PM,69.8,44.6,40,30.06,10.0,North,23.0,27.6,N/A,,Clear,360,2012-10-01 23:35:00
6:55 PM,68.0,44.6,43,30.07,10.0,North,17.3,25.3,N/A,,Clear,360,2012-10-01 23:55:00
7:15 PM,66.2,44.6,46,30.07,10.0,North,13.8,20.7,N/A,,Clear,10,2012-10-02 00:15:00
7:35 PM,64.4,44.6,49,30.08,10.0,North,10.4,-,N/A,,Clear,10,2012-10-02 00:35:00
7:55 PM,60.8,46.4,59,30.08,10.0,North,9.2,-,N/A,,Clear,10,2012-10-02 00:55:00
8:15 PM,60.8,44.6,55,30.09,10.0,North,11.5,-,N/A,,Clear,360,2012-10-02 01:15:00
8:35 PM,60.8,44.6,55,30.10,10.0,North,10.4,-,N/A,,Clear,360,2012-10-02 01:35:00
8:55 PM,59.0,46.4,63,30.10,10.0,North,9.2,-,N/A,,Clear,360,2012-10-02 01:55:00
9:15 PM,57.2,46.4,67,30.10,10.0,North,8.1,-,N/A,,Clear,360,2012-10-02 02:15:00
9:35 PM,55.4,46.4,72,30.11,10.0,North,5.8,-,N/A,,Clear,360,2012-10-02 02:35:00
10:15 PM,53.6,46.4,77,30.11,10.0,North,6.9,-,N/A,,Clear,360,2012-10-02 03:15:00
10:55 PM,53.6,46.4,77,30.12,10.0,North,6.9,-,N/A,,Clear,360,2012-10-02 03:55:00
11:15 PM,51.8,46.4,82,30.11,10.0,North,6.9,-,N/A,,Clear,360,2012-10-02 04:15:00
11:35 PM,51.8,46.4,82,30.12,10.0,North,5.8,-,N/A,,Clear,350,2012-10-02 04:35:00
11:55 PM,51.8,44.6,76,30.11,10.0,North,6.9,-,N/A,,Clear,350,2012-10-02 04:55:00